Time,TemperatureF,DewpointF,PressureIn,WindDirection,WindDirectionDegrees,WindSpeedMPH,WindSpeedGustMPH,Humidity,HourlyPrecipIn,Conditions,Clouds,dailyrainin,SolarRadiationWatts/m^2,SoftwareType,DateUTC
2013-06-14 00:11:00,63.0,53.0,-100.00,ENE,76,4.0,7.0,69,0.00,,,0.00,0.000000,,2013-06-14 05:11:00,
2013-06-14 00:22:00,63.0,53.0,-100.00,ENE,76,4.0,7.0,69,0.00,,,0.00,0.000000,,2013-06-14 05:22:00,
2013-06-14 00:34:00,63.0,53.0,-100.00,ENE,76,4.0,7.0,69,0.00,,,0.00,0.000000,,2013-06-14 05:34:00,
2013-06-14 00:43:00,63.0,53.0,-100.00,ENE,76,4.0,7.0,69,0.00,,,0.00,0.000000,,2013-06-14 05:43:00,
2013-06-14 01:12:00,61.0,53.0,-100.00,ENE,75,3.0,8.0,74,0.00,,,0.00,0.000000,,2013-06-14 06:12:00,
2013-06-14 01:22:00,61.0,53.0,-100.00,ENE,75,3.0,8.0,74,0.00,,,0.00,0.000000,,2013-06-14 06:22:00,
2013-06-14 01:33:00,61.0,53.0,-100.00,ENE,75,3.0,8.0,74,0.00,,,0.00,0.000000,,2013-06-14 06:33:00,
2013-06-14 01:43:00,61.0,53.0,-100.00,ENE,75,3.0,8.0,74,0.00,,,0.00,0.000000,,2013-06-14 06:43:00,
2013-06-14 02:12:00,58.0,54.0,-100.00,ENE,69,1.0,4.0,85,0.00,,,0.00,0.000000,,2013-06-14 07:12:00,
2013-06-14 02:22:00,58.0,54.0,-100.00,ENE,69,1.0,4.0,85,0.00,,,0.00,0.000000,,2013-06-14 07:22:00,
2013-06-14 02:33:00,58.0,54.0,-100.00,ENE,69,1.0,4.0,85,0.00,,,0.00,0.000000,,2013-06-14 07:33:00,
2013-06-14 02:43:00,58.0,54.0,-100.00,ENE,69,1.0,4.0,85,0.00,,,0.00,0.000000,,2013-06-14 07:43:00,
2013-06-14 03:12:00,55.0,52.0,-100.00,East,88,0.0,3.0,89,0.00,,,-99.99,0.000000,,2013-06-14 08:12:00,
2013-06-14 03:23:00,55.0,52.0,-100.00,East,88,0.0,3.0,89,0.00,,,-99.99,0.000000,,2013-06-14 08:23:00,
2013-06-14 03:33:00,55.0,52.0,-100.00,East,88,0.0,3.0,89,0.00,,,-99.99,0.000000,,2013-06-14 08:33:00,
2013-06-14 03:43:00,55.0,52.0,-100.00,East,88,0.0,3.0,89,0.00,,,-99.99,0.000000,,2013-06-14 08:43:00,
2013-06-14 05:11:00,53.0,52.0,-100.00,ENE,78,2.0,5.0,95,-99.99,,,0.00,0.000000,,2013-06-14 10:11:00,
2013-06-14 05:22:00,53.0,52.0,-100.00,ENE,78,2.0,5.0,95,-99.99,,,0.00,0.000000,,2013-06-14 10:22:00,
2013-06-14 05:34:00,53.0,52.0,-100.00,ENE,78,2.0,5.0,95,-99.99,,,0.00,0.000000,,2013-06-14 10:34:00,
2013-06-14 05:43:00,53.0,52.0,-100.00,ENE,78,2.0,5.0,95,-99.99,,,0.00,0.000000,,2013-06-14 10:43:00,
2013-06-14 06:11:00,53.0,51.0,-100.00,ENE,76,1.0,5.0,94,0.00,,,0.00,5.000000,,2013-06-14 11:11:00,
2013-06-14 06:23:00,53.0,51.0,-100.00,ENE,76,1.0,5.0,94,0.00,,,0.00,5.000000,,2013-06-14 11:23:00,
2013-06-14 06:32:00,53.0,51.0,-100.00,ENE,76,1.0,5.0,94,0.00,,,0.00,5.000000,,2013-06-14 11:32:00,
2013-06-14 06:43:00,53.0,51.0,-100.00,ENE,76,1.0,5.0,94,0.00,,,0.00,5.000000,,2013-06-14 11:43:00,
2013-06-14 07:12:00,58.0,53.0,-100.00,East,86,2.0,4.0,83,0.00,,,0.00,112.000000,,2013-06-14 12:12:00,
2013-06-14 07:22:00,58.0,53.0,-100.00,East,86,2.0,4.0,83,0.00,,,0.00,112.000000,,2013-06-14 12:22:00,
2013-06-14 07:33:00,58.0,53.0,-100.00,East,86,2.0,4.0,83,0.00,,,0.00,112.000000,,2013-06-14 12:33:00,
2013-06-14 07:43:00,58.0,53.0,-100.00,East,86,2.0,4.0,83,0.00,,,0.00,112.000000,,2013-06-14 12:43:00,
2013-06-14 08:11:00,64.0,50.0,-100.00,South,181,3.0,6.0,60,0.00,,,0.00,292.000000,,2013-06-14 13:11:00,
2013-06-14 08:22:00,64.0,50.0,-100.00,South,181,3.0,6.0,60,0.00,,,0.00,292.000000,,2013-06-14 13:22:00,
2013-06-14 08:33:00,64.0,50.0,-100.00,South,181,3.0,6.0,60,0.00,,,0.00,292.000000,,2013-06-14 13:33:00,
2013-06-14 08:43:00,64.0,50.0,-100.00,South,181,3.0,6.0,60,0.00,,,0.00,292.000000,,2013-06-14 13:43:00,
2013-06-14 09:11:00,67.0,50.0,-100.00,SE,146,4.0,8.0,55,0.00,,,0.00,480.000000,,2013-06-14 14:11:00,
2013-06-14 09:22:00,67.0,50.0,-100.00,SE,146,4.0,8.0,55,0.00,,,0.00,480.000000,,2013-06-14 14:22:00,
2013-06-14 09:34:00,67.0,50.0,-100.00,SE,146,4.0,8.0,55,0.00,,,0.00,480.000000,,2013-06-14 14:34:00,
2013-06-14 09:43:00,67.0,50.0,-100.00,SE,146,4.0,8.0,55,0.00,,,0.00,480.000000,,2013-06-14 14:43:00,
2013-06-14 10:11:00,69.0,48.0,-100.00,SSE,155,5.0,8.0,48,0.00,,,0.00,611.000000,,2013-06-14 15:11:00,
2013-06-14 10:23:00,69.0,48.0,-100.00,SSE,155,5.0,8.0,48,0.00,,,0.00,611.000000,,2013-06-14 15:23:00,
2013-06-14 10:33:00,69.0,48.0,-100.00,SSE,155,5.0,8.0,48,0.00,,,0.00,611.000000,,2013-06-14 15:33:00,
2013-06-14 10:44:00,69.0,48.0,-100.00,SSE,155,5.0,8.0,48,0.00,,,0.00,611.000000,,2013-06-14 15:44:00,
2013-06-14 11:11:00,72.0,51.0,-100.00,ESE,122,4.0,8.0,47,0.00,,,0.00,778.000000,,2013-06-14 16:11:00,
2013-06-14 11:22:00,72.0,51.0,-100.00,ESE,122,4.0,8.0,47,0.00,,,0.00,778.000000,,2013-06-14 16:22:00,
2013-06-14 11:33:00,72.0,51.0,-100.00,ESE,122,4.0,8.0,47,0.00,,,0.00,778.000000,,2013-06-14 16:33:00,
2013-06-14 11:43:00,72.0,51.0,-100.00,ESE,122,4.0,8.0,47,0.00,,,0.00,778.000000,,2013-06-14 16:43:00,
2013-06-14 12:11:00,75.0,50.0,-100.00,South,181,6.0,11.0,42,0.00,,,0.00,860.000000,,2013-06-14 17:11:00,
2013-06-14 12:22:00,75.0,50.0,-100.00,South,181,6.0,11.0,42,0.00,,,0.00,860.000000,,2013-06-14 17:22:00,
2013-06-14 12:34:00,75.0,50.0,-100.00,South,181,6.0,11.0,42,0.00,,,0.00,860.000000,,2013-06-14 17:34:00,
2013-06-14 12:43:00,75.0,50.0,-100.00,South,181,6.0,11.0,42,0.00,,,0.00,860.000000,,2013-06-14 17:43:00,
2013-06-14 13:11:00,76.0,51.0,-100.00,SSE,149,6.0,15.0,42,0.00,,,0.00,951.000000,,2013-06-14 18:11:00,
2013-06-14 13:22:00,76.0,51.0,-100.00,SSE,149,6.0,15.0,42,0.00,,,0.00,951.000000,,2013-06-14 18:22:00,
2013-06-14 13:32:00,76.0,51.0,-100.00,SSE,149,6.0,15.0,42,0.00,,,0.00,951.000000,,2013-06-14 18:32:00,
2013-06-14 13:43:00,76.0,51.0,-100.00,SSE,149,6.0,15.0,42,0.00,,,0.00,951.000000,,2013-06-14 18:43:00,
2013-06-14 14:11:00,78.0,53.0,-100.00,ESE,122,6.0,13.0,42,0.00,,,0.00,874.000000,,2013-06-14 19:11:00,
2013-06-14 14:22:00,78.0,53.0,-100.00,ESE,122,6.0,13.0,42,0.00,,,0.00,874.000000,,2013-06-14 19:22:00,
2013-06-14 14:32:00,78.0,53.0,-100.00,ESE,122,6.0,13.0,42,0.00,,,0.00,874.000000,,2013-06-14 19:32:00,
2013-06-14 14:43:00,78.0,53.0,-100.00,ESE,122,6.0,13.0,42,0.00,,,0.00,874.000000,,2013-06-14 19:43:00,
2013-06-14 15:11:00,79.0,53.0,-100.00,SSE,157,6.0,13.0,40,0.00,,,0.00,900.000000,,2013-06-14 20:11:00,
2013-06-14 15:22:00,79.0,53.0,-100.00,SSE,157,6.0,13.0,40,0.00,,,0.00,900.000000,,2013-06-14 20:22:00,
2013-06-14 15:33:00,79.0,53.0,-100.00,SSE,157,6.0,13.0,40,0.00,,,0.00,900.000000,,2013-06-14 20:33:00,
2013-06-14 15:43:00,79.0,53.0,-100.00,SSE,157,6.0,13.0,40,0.00,,,0.00,900.000000,,2013-06-14 20:43:00,
2013-06-14 16:11:00,79.0,53.0,-100.00,SE,128,6.0,14.0,41,0.00,,,0.00,753.000000,,2013-06-14 21:11:00,
2013-06-14 16:22:00,79.0,53.0,-100.00,SE,128,6.0,14.0,41,0.00,,,0.00,753.000000,,2013-06-14 21:22:00,
2013-06-14 16:34:00,79.0,53.0,-100.00,SE,128,6.0,14.0,41,0.00,,,0.00,753.000000,,2013-06-14 21:34:00,
2013-06-14 16:42:00,79.0,53.0,-100.00,SE,128,6.0,14.0,41,0.00,,,0.00,753.000000,,2013-06-14 21:42:00,
2013-06-14 17:11:00,78.0,53.0,-100.00,SSE,147,5.0,16.0,42,0.00,,,0.00,634.000000,,2013-06-14 22:11:00,
2013-06-14 17:22:00,78.0,53.0,-100.00,SSE,147,5.0,16.0,42,0.00,,,0.00,634.000000,,2013-06-14 22:22:00,
2013-06-14 17:33:00,78.0,53.0,-100.00,SSE,147,5.0,16.0,42,0.00,,,0.00,634.000000,,2013-06-14 22:33:00,
2013-06-14 17:43:00,78.0,53.0,-100.00,SSE,147,5.0,16.0,42,0.00,,,0.00,634.000000,,2013-06-14 22:43:00,
2013-06-14 18:11:00,77.0,54.0,-100.00,SE,127,5.0,14.0,45,0.00,,,0.00,334.000000,,2013-06-14 23:11:00,
2013-06-14 18:22:00,77.0,54.0,-100.00,SE,127,5.0,14.0,45,0.00,,,0.00,334.000000,,2013-06-14 23:22:00,
2013-06-14 18:33:00,77.0,54.0,-100.00,SE,127,5.0,14.0,45,0.00,,,0.00,334.000000,,2013-06-14 23:33:00,
2013-06-14 18:43:00,77.0,54.0,-100.00,SE,127,5.0,14.0,45,0.00,,,0.00,334.000000,,2013-06-14 23:43:00,
2013-06-14 19:11:00,76.0,55.0,-100.00,SSE,153,4.0,11.0,48,0.00,,,0.00,197.000000,,2013-06-15 00:11:00,
2013-06-14 19:23:00,76.0,55.0,-100.00,SSE,153,4.0,11.0,48,0.00,,,0.00,197.000000,,2013-06-15 00:23:00,
2013-06-14 19:34:00,76.0,55.0,-100.00,SSE,153,4.0,11.0,48,0.00,,,0.00,197.000000,,2013-06-15 00:34:00,
2013-06-14 19:43:00,76.0,55.0,-100.00,SSE,153,4.0,11.0,48,0.00,,,0.00,197.000000,,2013-06-15 00:43:00,
2013-06-14 20:11:00,74.0,56.0,-100.00,SE,137,2.0,6.0,54,0.00,,,0.00,102.000000,,2013-06-15 01:11:00,
2013-06-14 20:22:00,74.0,56.0,-100.00,SE,137,2.0,6.0,54,0.00,,,0.00,102.000000,,2013-06-15 01:22:00,
2013-06-14 20:33:00,74.0,56.0,-100.00,SE,137,2.0,6.0,54,0.00,,,0.00,102.000000,,2013-06-15 01:33:00,
2013-06-14 20:43:00,74.0,56.0,-100.00,SE,137,2.0,6.0,54,0.00,,,0.00,102.000000,,2013-06-15 01:43:00,
2013-06-14 21:11:00,72.0,57.0,-100.00,SE,146,2.0,7.0,59,0.00,,,0.00,18.000000,,2013-06-15 02:11:00,
2013-06-14 21:23:00,72.0,57.0,-100.00,SE,146,2.0,7.0,59,0.00,,,0.00,18.000000,,2013-06-15 02:23:00,
2013-06-14 21:33:00,72.0,57.0,-100.00,SE,146,2.0,7.0,59,0.00,,,0.00,18.000000,,2013-06-15 02:33:00,
2013-06-14 21:43:00,72.0,57.0,-100.00,SE,146,2.0,7.0,59,0.00,,,0.00,18.000000,,2013-06-15 02:43:00,
2013-06-14 22:11:00,69.0,57.0,-100.00,ESE,115,5.0,10.0,65,0.00,,,0.00,0.000000,,2013-06-15 03:11:00,
2013-06-14 22:24:00,69.0,57.0,-100.00,ESE,115,5.0,10.0,65,0.00,,,0.00,0.000000,,2013-06-15 03:24:00,
2013-06-14 22:32:00,69.0,57.0,-100.00,ESE,115,5.0,10.0,65,0.00,,,0.00,0.000000,,2013-06-15 03:32:00,
2013-06-14 22:44:00,69.0,57.0,-100.00,ESE,115,5.0,10.0,65,0.00,,,0.00,0.000000,,2013-06-15 03:44:00,
2013-06-14 23:12:00,68.0,56.0,-100.00,East,101,4.0,12.0,66,0.00,,,0.00,0.000000,,2013-06-15 04:12:00,
2013-06-14 23:22:00,68.0,56.0,-100.00,East,101,4.0,12.0,66,0.00,,,0.00,0.000000,,2013-06-15 04:22:00,
2013-06-14 23:34:00,68.0,56.0,-100.00,East,101,4.0,12.0,66,0.00,,,0.00,0.000000,,2013-06-15 04:34:00,
2013-06-14 23:43:00,68.0,56.0,-100.00,East,101,4.0,12.0,66,0.00,,,0.00,0.000000,,2013-06-15 04:43:00,